Regional Weather Roundup
Issued by NWS

Home | Current Version | Previous Version | Text Only | Print | Product List | Glossary Off
Versions: 1 2 3 4 5 6 7 8 9 10 11 12 13 14 15 16 17 18 19 20 21 22 23 24 25 26 27

000
ASUS45 KBOU 280910
RWRCO

WEATHER ROUNDUP FOR COLORADO
NATIONAL WEATHER SERVICE DENVER/BOULDER CO
300 AM MDT WED SEP 28 2016

NOTE: "FAIR" INDICATES FEW OR NO CLOUDS BELOW 12000 FEET WITH NO
SIGNIFICANT WEATHER AND/OR OBSTRUCTIONS TO VISIBILITY.

COZ001>005-013-030-031-281000-
...NORTHWEST COLORADO...

CITY           SKY/WX    TMP DP  RH WIND       PRES   REMARKS
CRAIG          FAIR      37  33  85 CALM      30.31S
HAYDEN         FAIR      46  30  53 E9        30.32R
MEEKER         FAIR      43  37  79 E5        30.31S
MOUNT WERNER   NOT AVBL
STEAMBOAT SPGS FAIR      42  33  70 CALM      30.34S
WALDEN           N/A     30  23  74 SE8       30.43S WCI  23
$$

COZ006>008-011-281000-
...WEST CENTRAL VALLEYS...

CITY           SKY/WX    TMP DP  RH WIND       PRES   REMARKS
GRAND JUNCTION FAIR      55  37  50 SE8       30.19S
MONTROSE       FAIR      50  37  61 SE8       30.28S
EAGLE          FAIR      45  30  57 E3        30.36S
RIFLE          FAIR      48  40  73 CALM      30.27R
DELTA          NOT AVBL
NUCLA          FAIR      52  36  54 SE7       30.29S
$$

COZ017>023-064>068-281000-
...SOUTHWEST COLORADO...

CITY           SKY/WX    TMP DP  RH WIND       PRES   REMARKS
DURANGO        FAIR      43  33  68 E5        30.31R
CORTEZ         FAIR      42  36  79 SE3       30.27R
PAGOSA SPRINGS FAIR      42  29  59 CALM      30.37R
TELLURIDE      FAIR      46  35  67 SE6       30.46F
WOLF CREEK PAS FAIR      41  27  56 MISG      30.65R
$$

COZ009-010-012-014-032>034-037-058>063-281000-
...CENTRAL COLORADO...

CITY           SKY/WX    TMP DP  RH WIND       PRES   REMARKS
ASPEN          FAIR      42  31  64 S6        30.38R
BUENA VISTA    NOT AVBL
COPPER MTN     FAIR      46  21  36 CALM      30.64S
BERTHOUD PASS  FAIR      37  27  65 E24       30.67S
COTTONWOOD PAS FAIR      54  23  30 SW9       30.51S
GUNNISON       FAIR      39  30  70 CALM      30.41S
KREMMLING      FAIR      34  23  64 CALM      30.41S
LEADVILLE      FAIR      34  21  59 CALM      30.51R
MONARCH PASS   FAIR      43  25  49 E3        30.74R
SALIDA         FAIR      49  28  44 W6        30.47R
SUNLIGHT       FAIR      46  32  57 NE6       30.58R
WILKERSON PASS FAIR      45  18  33 E5        30.63S
$$

COZ069>075-281000-
...SAN LUIS VALLEY/SANGRE DE CRISTO MOUNTAINS...

CITY           SKY/WX    TMP DP  RH WIND       PRES   REMARKS
ALAMOSA        FAIR      38  25  59 SW3       30.36R
LA VETA PASS   FAIR      48  21  34 MISG      30.52S
SAGUACHE       NOT AVBL
$$

COZ035-036-038>040-281000-
...NORTHERN COLORADO FRONT RANGE...

CITY           SKY/WX    TMP DP  RH WIND       PRES   REMARKS
DENVER INTL AP FAIR      53  28  38 W9        30.24S
DMNS CITY PARK   N/A     52  34  51 E8        30.25S
AURORA         CLEAR     52  29  41 S7        30.26R
FRONT RANGE AP NOT AVBL
ERIE MUNI ARPT FAIR      44  33  64 CALM      30.23S
BOULDER MUN AP FAIR      61  28  29 SW7       30.24S
CENTENNIAL     FAIR      52  29  41 SW8       30.27R
BROOMFIELD     FAIR      59  28  31 W3        30.26S
FORT COLLINS   FAIR      52  34  50 N6        30.23R
LONGMONT       FAIR      50  34  55 CALM      30.25R
$$

COZ041-046-047-076>085-087-088-281000-
...PIKES PEAK/PALMER DIVIDE AND SOUTHERN FOOTHILLS...

CITY           SKY/WX    TMP DP  RH WIND       PRES   REMARKS
COLO. SPRINGS  FAIR      57  28  33 N6        30.29R
A. F. ACADEMY  FAIR      46  26  46 N9        30.30R
SCHRIEVER AFB  NOT AVBL
ELLICOTT       NOT AVBL
FALCON         FAIR      54  24  31 NW6       30.32S
FORT CARSON    FAIR      53  31  42 NW10      30.24S
LIMON          FAIR      44  25  47 NW5       30.23R
MONUMENT HILL  FAIR      45  27  49 NW5       30.35R
TRINIDAD       FAIR      53  31  42 SW16      30.23R
$$

COZ042>045-048>051-090-091-281000-
...NORTHEAST COLORADO...

CITY           SKY/WX    TMP DP  RH WIND       PRES   REMARKS
GREELEY ARPT   FAIR      48  36  61 CALM      30.23R
AKRON          FAIR      51  30  44 W10       30.19R
BURLINGTON     FAIR      50  38  63 W12       30.15R
WRAY           NOT AVBL
STERLING       FAIR      41  34  75 CALM      30.16S
HOLYOKE        FAIR      48  36  61 NW7       30.15R
FORT MORGAN    FAIR      50  31  49 NW9       30.20S
$$

COZ086-089-092>099-281000-
...SOUTHEAST COLORADO...

CITY           SKY/WX    TMP DP  RH WIND       PRES   REMARKS
PUEBLO         FAIR      58  32  37 W10       30.18R
LA JUNTA       FAIR      56  35  45 S3        30.14R
LAMAR          FAIR      47  36  65 SW5       30.10S
SPRINGFIELD    NOT AVBL
$$




USA.gov is the U.S. government's official web portal to all federal, state and local government web resources and services.